Miscellaneous Local Product
Issued by NWS North Platte, NE

Home | Current Version | Previous Version | Text Only | Print | Product List | Glossary On
Versions: 1 2 3 4 5 6 7 8 9 10 11 12 13 14 15 16 17 18 19 20 21 22 23 24 25 26 27 28 29 30 31 32 33 34 35 36 37 38 39 40 41 42 43 44 45 46 47 48 49 50
000
AXUS43 KLBF 240910
MISLBF


WESTERN AND NORTH CENTRAL NEBRASKA HOURLY WEATHER ROUNDUP
NATIONAL WEATHER SERVICE NORTH PLATTE NE
400 AM CDT SAT JUN 24 2017

NOTE: "FAIR" INDICATES FEW OR NO CLOUDS BELOW 12,000 FEET WITH NO
SIGNIFICANT WEATHER AND/OR OBSTRUCTIONS TO VISIBILITY.

NOTE: STATIONS NOT REPORTING VARIABLES SUCH AS SKY/WEATHER OR
PRESSURE ARE PROVIDED BY RAWS AND APRS NETWORKS AND ARE NOT UNDER
NATIONAL WEATHER SERVICE QUALITY CONTROL.

...OBSERVATIONS IN AND NEAR THE EASTERN PANHANDLE OF NEBRASKA...

CITY           SKY/WX    TMP DP  RH WIND       PRES   REMARKS
PINE RIDGE     CLEAR     42  34  73 CALM      30.26S
GORDON         FAIR      43  36  76 W8        30.25F
CHADRON        CLEAR     43  37  79 S3        30.27F
ALLIANCE       CLOUDY    49  43  80 SW7       30.28F
SIDNEY         CLOUDY    54  37  52 E6        30.31S
CRESCENT LAKE    N/A     53  39  60 NW3         N/A
$$

...OBSERVATIONS IN NORTHERN NEBRASKA AND FAR SOUTHERN SOUTH DAKOTA...

CITY           SKY/WX    TMP DP  RH WIND       PRES   REMARKS
WINNER         FAIR      44  34  67 SW6       30.18S
VALENTINE      CLEAR     44  31  60 W7        30.22S
THEDFORD       CLOUDY    45  36  70 W3        30.25F
AINSWORTH      CLEAR     44  37  77 W7        30.22S
O`NEILL        CLEAR     46  40  77 W5        30.19S
ORD            CLEAR     43  37  79 W3        30.20S
BROKEN BOW     CLEAR     44  38  79 CALM      30.23R
HALSEY           N/A     46  34  62 CALM        N/A
BUTTE            N/A     48  36  62 SW3         N/A
CHAMBERS         N/A     44  34  67 CALM        N/A
EWING            N/A     45  41  85 CALM        N/A
$$

...OBSERVATIONS IN SOUTHWEST NEBRASKA AND FAR NORTHEAST COLORADO...

CITY           SKY/WX    TMP DP  RH WIND       PRES   REMARKS
WRAY           FAIR      52  41  66 CALM      30.27F
IMPERIAL       CLOUDY    53  45  74 N7        30.26F
OGALLALA       CLOUDY    55  46  72 CALM      30.28S
NORTH PLATTE   CLOUDY    48  42  80 CALM      30.26S
MCCOOK         CLOUDY    50  46  86 N5        30.24S
LEXINGTON      CLEAR     47  44  87 W6        30.24S
STAPLETON        N/A     48  39  70 CALM        N/A
GOTHENBURG       N/A     50  38  64 CALM        N/A
CALLAWAY         N/A     45  42  89 CALM        N/A
$$

...OBSERVATIONS IN CENTRAL LINCOLN COUNTY AREA...

CITY           SKY/WX    TMP DP  RH WIND       PRES   REMARKS
N.P. AIRPORT   CLOUDY    48  42  80 CALM      30.26S
N.P. DOWNTOWN    N/A     53  43  68 CALM        N/A
N.P. SOUTHEAST   N/A     52  42  69 CALM        N/A
N.P. HILLCREST   N/A     48  40  75 CALM        N/A
$$

...SOME OBSERVATIONS FROM AROUND THE REGION...

CITY           SKY/WX    TMP DP  RH WIND       PRES   REMARKS
DENVER         PTCLDY    47  43  86 S8        30.31F
LIMON          CLOUDY    53  44  71 CALM      30.32F
ASPEN          CLOUDY    45  30  55 S6        30.33S
LARAMIE        CLEAR     44  32  62 E13       30.35S
CASPER         MOCLDY    40  33  76 NW5       30.33F
CHEYENNE       CLOUDY    53  29  39 E7        30.34F
SCOTTSBLUFF    CLOUDY    57  35  43 CALM      30.30F
GRAND ISLAND   CLEAR     48  44  86 W6        30.20S
OMAHA          CLEAR     55  48  77 CALM      30.14R
SIOUX FALLS    CLEAR     49  43  80 W6        30.11S
PIERRE         CLEAR     48  36  63 W10       30.13F
RAPID CITY     CLEAR     48  29  47 NW10      30.25S
BISMARCK       CLOUDY    50  41  71 NW8       30.11S
KANSAS CITY    CLEAR     58  55  90 W7        30.12R
HILL CITY      CLEAR     52  48  86 N5        30.22S
WICHITA        CLOUDY    66  55  67 N7        30.14S
DODGE CITY     PTCLDY    63  55  75 NW3       30.19F
OKLAHOMA CITY  CLOUDY    72  52  49 NE15      30.10R
DALLAS         CLOUDY    73  70  90 NE5       29.94S
AMARILLO       TSTM      57  54  89 NE13      30.23S
$$




USA.gov is the U.S. government's official web portal to all federal, state and local government web resources and services.